Weather History for Dayton, OH

Change the Weather History Date:

Sunday, April 14, 2013

  Actual Average Record
Temperature  
Mean Temperature 52 °F 51 °F  
Max Temperature 67 °F 62 °F 82 °F (1941)
Min Temperature 36 °F 41 °F 22 °F (1950)
Degree Days  
Heating Degree Days 13 14  
Month to date heating degree days 208 230  
Since 1 July heating degree days 5170 5269  
Cooling Degree Days 0 0  
Month to date cooling degree days 9 0  
Year to date cooling degree days 9 0  
Growing Degree Days 2 (Base 50)    
Moisture  
Dew Point 38 °F    
Average Humidity 61    
Maximum Humidity 82    
Minimum Humidity 40    
Precipitation  
Precipitation 0.00 in 0.13 in 2.16 in (1922)
Month to date precipitation 1.44 1.83  
Year to date precipitation 8.99 10.12  
Snow  
Snow 0.00 in 0.00 in 1.50 in (1904)
Month to date snowfall 0.0 0.5  
Since 1 July snowfall 35.9 23.2  
Snow Depth 0.00 in    
Sea Level Pressure  
Sea Level Pressure 30.00 in    
Wind  
Wind Speed 9 mph (SE)    
Max Wind Speed 15 mph    
Max Gust Speed 20 mph    
Visibility 10 miles    
Events      
T = Trace of Precipitation, MM = Missing Value Source: NWS Daily Summary

Daily Weather History Graph

Daily Weather History Graph

Search for Another Location

Airport:

Trip Planner

Search our weather history database for the weather conditions in past years. The results will help you decide how hot, cold, wet, or windy it might be!

Date:

Astronomy

Apr. 14, 2013 Rise Set
Actual Time 7:00 AM EDT 8:14 PM EDT
Civil Twilight 6:32 AM EDT 8:42 PM EDT
Nautical Twilight 5:58 AM EDT 9:16 PM EDT
Astronomical Twilight 5:23 AM EDT 9:51 PM EDT
Moon 9:36 AM EDT (4/14) No Moon Set
Length of Visible Light 14h 10m
Length of Day
13h 14m
Waxing Crescent, 17% of the Moon is Illuminated
Apr 14
Waxing Crescent
Apr 18
First Quarter
Apr 25
Full
May 2
Last Quarter
May 9
New

Hourly Weather History & Observations

Time (EDT) Temp. Windchill Dew Point Humidity Pressure Visibility Wind Dir Wind Speed Gust Speed Precip Events Conditions
12:56 AM 39.9 °F 36.7 °F 33.1 °F 77% 30.05 in 10.0 mi SSE 4.6 mph - N/A   Mostly Cloudy
1:56 AM 39.0 °F 34.8 °F 33.1 °F 79% 30.05 in 10.0 mi SSE 5.8 mph - N/A   Mostly Cloudy
2:56 AM 37.9 °F 32.7 °F 32.0 °F 79% 30.06 in 10.0 mi SSE 6.9 mph - N/A   Mostly Cloudy
3:56 AM 37.0 °F 31.0 °F 32.0 °F 82% 30.06 in 9.0 mi SSE 8.1 mph - N/A   Scattered Clouds
4:56 AM 37.0 °F 31.0 °F 32.0 °F 82% 30.08 in 10.0 mi SSE 8.1 mph - N/A   Scattered Clouds
5:56 AM 39.0 °F 32.8 °F 33.1 °F 79% 30.08 in 10.0 mi SSE 9.2 mph - N/A   Overcast
6:56 AM 39.0 °F 34.0 °F 33.1 °F 79% 30.07 in 10.0 mi SE 6.9 mph - N/A   Overcast
7:56 AM 39.9 °F 33.9 °F 33.1 °F 77% 30.06 in 10.0 mi SE 9.2 mph - N/A   Mostly Cloudy
8:56 AM 41.0 °F 35.2 °F 33.1 °F 73% 30.10 in 10.0 mi SE 9.2 mph - N/A   Mostly Cloudy
9:56 AM 45.0 °F 38.9 °F 35.1 °F 68% 30.08 in 10.0 mi ESE 12.7 mph - N/A   Mostly Cloudy
10:56 AM 50.0 °F - 37.0 °F 61% 30.05 in 10.0 mi ESE 9.2 mph - N/A   Mostly Cloudy
11:56 AM 53.1 °F - 39.0 °F 59% 30.04 in 10.0 mi ESE 10.4 mph - N/A   Overcast
12:56 PM 57.9 °F - 41.0 °F 53% 30.00 in 10.0 mi ESE 12.7 mph - N/A   Overcast
1:56 PM 61.0 °F - 43.0 °F 52% 29.99 in 10.0 mi ESE 10.4 mph - N/A   Overcast
2:56 PM 63.0 °F - 42.1 °F 46% 29.97 in 10.0 mi SE 9.2 mph - N/A   Overcast
3:56 PM 64.9 °F - 45.0 °F 48% 29.95 in 10.0 mi ESE 8.1 mph - N/A   Overcast
4:56 PM 66.9 °F - 43.0 °F 42% 29.94 in 10.0 mi ESE 11.5 mph - N/A   Overcast
5:56 PM 66.9 °F - 41.0 °F 39% 29.92 in 10.0 mi SE 11.5 mph - N/A   Overcast
6:56 PM 66.0 °F - 41.0 °F 40% 29.91 in 10.0 mi SSE 13.8 mph - N/A   Overcast
7:56 PM 63.0 °F - 42.1 °F 46% 29.91 in 10.0 mi ESE 8.1 mph - N/A   Mostly Cloudy
8:56 PM 62.1 °F - 42.1 °F 48% 29.91 in 10.0 mi ESE 11.5 mph - N/A   Mostly Cloudy
9:56 PM 59.0 °F - 42.1 °F 53% 29.93 in 10.0 mi East 6.9 mph - N/A   Mostly Cloudy
10:56 PM 57.0 °F - 42.1 °F 57% 29.92 in 10.0 mi ESE 10.4 mph - N/A   Overcast
11:56 PM 57.0 °F - 41.0 °F 55% 29.91 in 10.0 mi SE 10.4 mph - N/A   Overcast